User: anonymous   Login
Location: Squamish
(49.7000°N, 123.1500°W)
Time: 05:09:08
(UTC-07:00)
Language:

NOAA 19 - Orbit

View from above orbital plane
View from above orbital plane
View from above satellite
View from above satellite

Ground track
Ground track

The orbit data is extracted from the following two-line orbital elements,

1 33591U 09005A   17085.86828204 +.00000078 +00000-0 +67330-4 0  9992
2 33591 099.0834 051.5662 0014564 140.4363 219.7874 14.12164624418778
Epoch (UTC): 26 March 2017 20:50:19
Eccentricity: 0.0014564
inclination: 99.0834°
perigee height: 841 km
apogee height: 862 km
right ascension of ascending node: 51.5662°
argument of perigee: 140.4363°
revolutions per day: 14.12164624
mean anomaly at epoch: 219.7874°
orbit number at epoch: 41877

The dashed part of the orbit path shows where the satellite is in the earth's shadow,  

DLR